Weather History for KRUE - January, 2013

Change the Weather History Date:

Monday, January 7, 2013

  Actual Average (KHOT) Record (KHOT)
Temperature  
Mean Temperature 36 °F -  
Max Temperature 50 °F 50 °F 72 °F (2006)
Min Temperature 21 °F 29 °F 9 °F (1968)
Degree Days  
Heating Degree Days 30    
Moisture  
Dew Point 25 °F    
Average Humidity 74    
Maximum Humidity 92    
Minimum Humidity 39    
Precipitation  
Precipitation 0.00 in - - ()
Sea Level Pressure  
Sea Level Pressure 30.31 in    
Wind  
Wind Speed 1 mph (East)    
Max Wind Speed 7 mph    
Max Gust Speed -    
Visibility 10 miles    
Events      
Averages and records for this station are not official NWS values.
T = Trace of Precipitation, MM = Missing Value Source: NWS Daily Summary

Daily Weather History Graph

Daily Weather History Graph

Search for Another Location

Airport or City:

Trip Planner

Search our weather history database for the weather conditions in past years. The results will help you decide how hot, cold, wet, or windy it might be!

Date:

Astronomy

Jan. 07, 2013 Rise Set
Actual Time 7:21 AM CST 5:16 PM CST
Civil Twilight 6:53 AM CST 5:44 PM CST
Nautical Twilight 6:22 AM CST 6:15 PM CST
Astronomical Twilight 5:51 AM CST 6:46 PM CST
Moon 2:48 AM CST (1/7) 1:25 PM CST (1/7)
Length of Visible Light 10h 50m
Length of Day
9h 54m
Waning Crescent, 22% of the Moon is Illuminated
Jan 7
Waning Crescent
Jan 11
New
Jan 18
First Quarter
Jan 26
Full
Feb 3
Last Quarter

Hourly Weather History & Observations

Time (CST) Temp. Windchill Dew Point Humidity Pressure Visibility Wind Dir Wind Speed Gust Speed Precip Events Conditions
12:53 AM 26.1 °F - 24.1 °F 92% 30.38 in 10.0 mi Calm Calm - N/A   Clear
1:53 AM 25.0 °F - 21.9 °F 88% 30.38 in 10.0 mi Calm Calm - N/A   Clear
2:53 AM 24.1 °F - 21.9 °F 91% 30.37 in 9.0 mi Calm Calm - N/A   Clear
3:53 AM 23.0 °F - 21.0 °F 92% 30.35 in 9.0 mi Calm Calm - N/A   Clear
4:53 AM 23.0 °F - 19.9 °F 88% 30.35 in 10.0 mi Calm Calm - N/A   Clear
6:53 AM 21.0 °F - 18.0 °F 88% 30.39 in 10.0 mi Calm Calm - N/A   Clear
7:53 AM 21.0 °F - 19.0 °F 92% 30.40 in 9.0 mi Calm Calm - N/A   Clear
8:53 AM 28.9 °F - 26.1 °F 89% 30.41 in 10.0 mi Calm Calm - N/A   Clear
9:53 AM 37.9 °F 32.7 °F 30.0 °F 73% 30.42 in 10.0 mi East 6.9 mph - N/A   Clear
10:53 AM 39.9 °F 35.8 °F 28.9 °F 65% 30.40 in 10.0 mi Variable 5.8 mph - N/A   Clear
11:53 AM 43.0 °F 39.5 °F 27.0 °F 53% 30.34 in 10.0 mi Variable 5.8 mph - N/A   Clear
1:53 PM 48.0 °F - 27.0 °F 44% 30.28 in 10.0 mi Calm Calm - N/A   Clear
2:53 PM 50.0 °F - 26.1 °F 39% 30.25 in 10.0 mi Variable 4.6 mph - N/A   Clear
3:53 PM 48.0 °F - 27.0 °F 44% 30.23 in 10.0 mi East 4.6 mph - N/A   Clear
5:53 PM 39.9 °F 37.8 °F 27.0 °F 60% 30.22 in 10.0 mi Variable 3.5 mph - N/A   Clear
6:53 PM 35.1 °F - 27.0 °F 72% 30.23 in 10.0 mi Calm Calm - N/A   Clear
7:53 PM 33.1 °F - 27.0 °F 78% 30.22 in 10.0 mi Calm Calm - N/A   Clear
8:53 PM 33.1 °F - 26.1 °F 75% 30.21 in 10.0 mi Calm Calm - N/A   Clear
9:53 PM 37.0 °F - 26.1 °F 65% 30.20 in 10.0 mi Calm Calm - N/A   Clear
10:53 PM 30.0 °F - 25.0 °F 82% 30.19 in 10.0 mi Calm Calm - N/A   Clear
11:53 PM 30.0 °F - 25.0 °F 82% 30.19 in 10.0 mi Calm Calm - N/A   Clear